Year,Month,Day,Hour,Minute,Value (Times are PST for temperature in C)
2020,01,17,00,00,-1.40
2020,01,17,00,01,-1.40
2020,01,17,00,02,-1.30
2020,01,17,00,03,-1.30
2020,01,17,00,04,-1.30
2020,01,17,00,05,-1.30
2020,01,17,00,06,-1.30
2020,01,17,00,07,-1.30
2020,01,17,00,08,-1.30
2020,01,17,00,09,-1.30
2020,01,17,00,10,-1.30
2020,01,17,00,11,-1.30
2020,01,17,00,12,-1.30
2020,01,17,00,13,-1.30
2020,01,17,00,14,-1.30
2020,01,17,00,15,-1.30
2020,01,17,00,16,-1.30
2020,01,17,00,17,-1.30
2020,01,17,00,18,-1.30
2020,01,17,00,19,-1.30
2020,01,17,00,20,-1.30
2020,01,17,00,21,-1.30
2020,01,17,00,22,-1.30
2020,01,17,00,23,-1.30
2020,01,17,00,24,-1.30
2020,01,17,00,25,-1.30
2020,01,17,00,26,-1.30
2020,01,17,00,27,-1.30
2020,01,17,00,28,-1.30
2020,01,17,00,29,-1.30
2020,01,17,00,30,-1.30
2020,01,17,00,31,-1.30
2020,01,17,00,32,-1.30
2020,01,17,00,33,-1.30
2020,01,17,00,34,-1.30
2020,01,17,00,35,-1.30
2020,01,17,00,36,-1.20
2020,01,17,00,37,-1.20
2020,01,17,00,38,-1.20
2020,01,17,00,39,-1.20
2020,01,17,00,40,-1.20
2020,01,17,00,41,-1.20
2020,01,17,00,42,-1.20
2020,01,17,00,43,-1.20
2020,01,17,00,44,-1.20
2020,01,17,00,45,-1.20
2020,01,17,00,46,-1.20
2020,01,17,00,47,-1.20
2020,01,17,00,48,-1.20
2020,01,17,00,49,-1.20
2020,01,17,00,50,-1.20
2020,01,17,00,51,-1.20
2020,01,17,00,52,-1.20
2020,01,17,00,53,-1.20
2020,01,17,00,54,-1.10
2020,01,17,00,55,-1.10
2020,01,17,00,56,-1.10
2020,01,17,00,57,-1.10
2020,01,17,00,58,-1.10
2020,01,17,00,59,-1.10
2020,01,17,01,00,-1.10
2020,01,17,01,01,-1.10
2020,01,17,01,02,-1.10
2020,01,17,01,03,-1.10
2020,01,17,01,04,-1.10
2020,01,17,01,05,-1.10
2020,01,17,01,06,-1.10
2020,01,17,01,07,-1.10
2020,01,17,01,08,-1.00
2020,01,17,01,09,-1.00
2020,01,17,01,10,-1.00
2020,01,17,01,11,-1.00
2020,01,17,01,12,-1.00
2020,01,17,01,13,-1.00
2020,01,17,01,14,-1.00
2020,01,17,01,15,-1.00
2020,01,17,01,16,-1.00
2020,01,17,01,17,-0.90
2020,01,17,01,18,-0.90
2020,01,17,01,19,-0.90
2020,01,17,01,20,-0.90
2020,01,17,01,21,-0.90
2020,01,17,01,22,-0.90
2020,01,17,01,23,-0.90
2020,01,17,01,24,-0.90
2020,01,17,01,25,-0.90
2020,01,17,01,26,-0.90
2020,01,17,01,27,-0.80
2020,01,17,01,28,-0.80
2020,01,17,01,29,-0.80
2020,01,17,01,30,-0.80
2020,01,17,01,31,-0.80
2020,01,17,01,32,-0.80
2020,01,17,01,33,-0.80
2020,01,17,01,34,-0.80
2020,01,17,01,35,-0.80
2020,01,17,01,36,-0.70
2020,01,17,01,37,-0.70
2020,01,17,01,38,-0.70
2020,01,17,01,39,-0.70
2020,01,17,01,40,-0.70
2020,01,17,01,41,-0.70
2020,01,17,01,42,-0.70
2020,01,17,01,43,-0.70
2020,01,17,01,44,-0.70
2020,01,17,01,45,-0.70
2020,01,17,01,46,-0.70
2020,01,17,01,47,-0.70
2020,01,17,01,48,-0.70
2020,01,17,01,49,-0.70
2020,01,17,01,50,-0.70
2020,01,17,01,51,-0.70
2020,01,17,01,52,-0.70
2020,01,17,01,53,-0.70
2020,01,17,01,54,-0.70
2020,01,17,01,55,-0.70
2020,01,17,01,56,-0.70
2020,01,17,01,57,-0.70
2020,01,17,01,58,-0.70
2020,01,17,01,59,-0.70
2020,01,17,02,00,-0.70
2020,01,17,02,01,-0.70
2020,01,17,02,02,-0.70
2020,01,17,02,03,-0.70
2020,01,17,02,04,-0.70
2020,01,17,02,05,-0.70
2020,01,17,02,06,-0.70
2020,01,17,02,07,-0.70
2020,01,17,02,08,-0.70
2020,01,17,02,09,-0.70
2020,01,17,02,10,-0.70
2020,01,17,02,11,-0.60
2020,01,17,02,12,-0.60
2020,01,17,02,13,-0.60
2020,01,17,02,14,-0.60
2020,01,17,02,15,-0.60
2020,01,17,02,16,-0.60
2020,01,17,02,17,-0.50
2020,01,17,02,18,-0.50
2020,01,17,02,19,-0.40
2020,01,17,02,20,-0.40
2020,01,17,02,21,-0.30
2020,01,17,02,22,-0.30
2020,01,17,02,23,-0.20
2020,01,17,02,24,-0.20
2020,01,17,02,25,-0.10
2020,01,17,02,26,-0.10
2020,01,17,02,27,-0.10
2020,01,17,02,28,-0.10
2020,01,17,02,29,0.00
2020,01,17,02,30,0.00
2020,01,17,02,31,0.00
2020,01,17,02,32,0.00
2020,01,17,02,33,0.00
2020,01,17,02,34,0.00
2020,01,17,02,35,0.00
2020,01,17,02,36,-0.10
2020,01,17,02,37,-0.10
2020,01,17,02,38,-0.10
2020,01,17,02,39,-0.10
2020,01,17,02,40,-0.10
2020,01,17,02,41,-0.10
2020,01,17,02,42,-0.10
2020,01,17,02,43,-0.10
2020,01,17,02,44,-0.20
2020,01,17,02,45,-0.20
2020,01,17,02,46,-0.20
2020,01,17,02,47,-0.20
2020,01,17,02,48,-0.20
2020,01,17,02,49,-0.20
2020,01,17,02,50,-0.20
2020,01,17,02,51,-0.20
2020,01,17,02,52,-0.20
2020,01,17,02,53,-0.20
2020,01,17,02,54,-0.20
2020,01,17,02,55,-0.20
2020,01,17,02,56,-0.30
2020,01,17,02,57,-0.30
2020,01,17,02,58,-0.30
2020,01,17,02,59,-0.30
2020,01,17,03,00,-0.30
2020,01,17,03,01,-0.40
2020,01,17,03,02,-0.40
2020,01,17,03,03,-0.40
2020,01,17,03,04,-0.40
2020,01,17,03,05,-0.40
2020,01,17,03,06,-0.40
2020,01,17,03,07,-0.50
2020,01,17,03,08,-0.50
2020,01,17,03,09,-0.50
2020,01,17,03,10,-0.50
2020,01,17,03,11,-0.50
2020,01,17,03,12,-0.60
2020,01,17,03,13,-0.60
2020,01,17,03,14,-0.60
2020,01,17,03,15,-0.60
2020,01,17,03,16,-0.60
2020,01,17,03,17,-0.60
2020,01,17,03,18,-0.60
2020,01,17,03,19,-0.70
2020,01,17,03,20,-0.70
2020,01,17,03,21,-0.70
2020,01,17,03,22,-0.70
2020,01,17,03,23,-0.80
2020,01,17,03,24,-0.80
2020,01,17,03,25,-0.80
2020,01,17,03,26,-0.80
2020,01,17,03,27,-0.80
2020,01,17,03,28,-0.80
2020,01,17,03,29,-0.80
2020,01,17,03,30,-0.90
2020,01,17,03,31,-0.90
2020,01,17,03,32,-0.90
2020,01,17,03,33,-0.90
2020,01,17,03,34,-0.90
2020,01,17,03,35,-0.90
2020,01,17,03,36,-0.90
2020,01,17,03,37,-0.90
2020,01,17,03,38,-0.90
2020,01,17,03,39,-0.90
2020,01,17,03,40,-0.90
2020,01,17,03,41,-0.90
2020,01,17,03,42,-0.90
2020,01,17,03,43,-1.00
2020,01,17,03,44,-1.00
2020,01,17,03,45,-1.00
2020,01,17,03,46,-1.00
2020,01,17,03,47,-1.10
2020,01,17,03,48,-1.10
2020,01,17,03,49,-1.10
2020,01,17,03,50,-1.10
2020,01,17,03,51,-1.10
2020,01,17,03,52,-1.20
2020,01,17,03,53,-1.20
2020,01,17,03,54,-1.20
2020,01,17,03,55,-1.20
2020,01,17,03,56,-1.20
2020,01,17,03,57,-1.20
2020,01,17,03,58,-1.30
2020,01,17,03,59,-1.30
2020,01,17,04,00,-1.30
2020,01,17,04,01,-1.30
2020,01,17,04,02,-1.30
2020,01,17,04,03,-1.40
2020,01,17,04,04,-1.40
2020,01,17,04,05,-1.40
2020,01,17,04,06,-1.40
2020,01,17,04,07,-1.40
2020,01,17,04,08,-1.40
2020,01,17,04,09,-1.40
2020,01,17,04,10,-1.40
2020,01,17,04,11,-1.40
2020,01,17,04,12,-1.40
2020,01,17,04,13,-1.40
2020,01,17,04,14,-1.40
2020,01,17,04,15,-1.40
2020,01,17,04,16,-1.40
2020,01,17,04,17,-1.40
2020,01,17,04,18,-1.40
2020,01,17,04,19,-1.40
2020,01,17,04,20,-1.40
2020,01,17,04,21,-1.40
2020,01,17,04,22,-1.40
2020,01,17,04,23,-1.40
2020,01,17,04,24,-1.40
2020,01,17,04,25,-1.40
2020,01,17,04,26,-1.40
2020,01,17,04,27,-1.30
2020,01,17,04,28,-1.30
2020,01,17,04,29,-1.30
2020,01,17,04,30,-1.30
2020,01,17,04,31,-1.30
2020,01,17,04,32,-1.30
2020,01,17,04,33,-1.30
2020,01,17,04,34,-1.30
2020,01,17,04,35,-1.30
2020,01,17,04,36,-1.30
2020,01,17,04,37,-1.30
2020,01,17,04,38,-1.40
2020,01,17,04,39,-1.40
2020,01,17,04,40,-1.40
2020,01,17,04,41,-1.40
2020,01,17,04,42,-1.40
2020,01,17,04,43,-1.40
2020,01,17,04,44,-1.40
2020,01,17,04,45,-1.40
2020,01,17,04,46,-1.40
2020,01,17,04,47,-1.40
2020,01,17,04,48,-1.40
2020,01,17,04,49,-1.50
2020,01,17,04,50,-1.50
2020,01,17,04,51,-1.50
2020,01,17,04,52,-1.60
2020,01,17,04,53,-1.60
2020,01,17,04,54,-1.60
2020,01,17,04,55,-1.60
2020,01,17,04,56,-1.70
2020,01,17,04,57,-1.70
2020,01,17,04,58,-1.70
2020,01,17,04,59,-1.70
2020,01,17,05,00,-1.70
2020,01,17,05,01,-1.60
2020,01,17,05,02,-1.60
2020,01,17,05,03,-1.60
2020,01,17,05,04,-1.60
2020,01,17,05,05,-1.60
2020,01,17,05,06,-1.60
2020,01,17,05,07,-1.60
2020,01,17,05,08,-1.60
2020,01,17,05,09,-1.60
2020,01,17,05,10,-1.60
2020,01,17,05,11,-1.60
2020,01,17,05,12,-1.60
2020,01,17,05,13,-1.60
2020,01,17,05,14,-1.60
2020,01,17,05,15,-1.60
2020,01,17,05,16,-1.60
2020,01,17,05,17,-1.60
2020,01,17,05,18,-1.60
2020,01,17,05,19,-1.60
2020,01,17,05,20,-1.60
2020,01,17,05,21,-1.60
2020,01,17,05,22,-1.60
2020,01,17,05,23,-1.60
2020,01,17,05,24,-1.60
2020,01,17,05,25,-1.60
2020,01,17,05,26,-1.60
2020,01,17,05,27,-1.60
2020,01,17,05,28,-1.60
2020,01,17,05,29,-1.60
2020,01,17,05,30,-1.60
2020,01,17,05,31,-1.70
2020,01,17,05,32,-1.70
2020,01,17,05,33,-1.70
2020,01,17,05,34,-1.70
2020,01,17,05,35,-1.70
2020,01,17,05,36,-1.70
2020,01,17,05,37,-1.70
2020,01,17,05,38,-1.70
2020,01,17,05,39,-1.70
2020,01,17,05,40,-1.70
2020,01,17,05,41,-1.70
2020,01,17,05,42,-1.80
2020,01,17,05,43,-1.80
2020,01,17,05,44,-1.80
2020,01,17,05,45,-1.80
2020,01,17,05,46,-1.80
2020,01,17,05,47,-1.80
2020,01,17,05,48,-1.90
2020,01,17,05,49,-1.90
2020,01,17,05,50,-1.90
2020,01,17,05,51,-1.90
2020,01,17,05,52,-1.90
2020,01,17,05,53,-1.90
2020,01,17,05,54,-1.90
2020,01,17,05,55,-2.00
2020,01,17,05,56,-2.00
2020,01,17,05,57,-2.00
2020,01,17,05,58,-2.00
2020,01,17,05,59,-2.10
2020,01,17,06,00,-2.10
2020,01,17,06,01,-2.10
2020,01,17,06,02,-2.10
2020,01,17,06,03,-2.10
2020,01,17,06,04,-2.10
2020,01,17,06,05,-2.10
2020,01,17,06,06,-2.10
2020,01,17,06,07,-2.10
2020,01,17,06,08,-2.10
2020,01,17,06,09,-2.10
2020,01,17,06,10,-2.20
2020,01,17,06,11,-2.20
2020,01,17,06,12,-2.20
2020,01,17,06,13,-2.20
2020,01,17,06,14,-2.20
2020,01,17,06,15,-2.20
2020,01,17,06,16,-2.20
2020,01,17,06,17,-2.20
2020,01,17,06,18,-2.20
2020,01,17,06,19,-2.20
2020,01,17,06,20,-2.20
2020,01,17,06,21,-2.20
2020,01,17,06,22,-2.20
2020,01,17,06,23,-2.20
2020,01,17,06,24,-2.20
2020,01,17,06,25,-2.20
2020,01,17,06,26,-2.20
2020,01,17,06,27,-2.20
2020,01,17,06,28,-2.20
2020,01,17,06,29,-2.20
2020,01,17,06,30,-2.20
2020,01,17,06,31,-2.20
2020,01,17,06,32,-2.20
2020,01,17,06,33,-2.20
2020,01,17,06,34,-2.20
2020,01,17,06,35,-2.20
2020,01,17,06,36,-2.20
2020,01,17,06,37,-2.20
2020,01,17,06,38,-2.20
2020,01,17,06,39,-2.20
2020,01,17,06,40,-2.20
2020,01,17,06,41,-2.20
2020,01,17,06,42,-2.20
2020,01,17,06,43,-2.20
2020,01,17,06,44,-2.20
2020,01,17,06,45,-2.10
2020,01,17,06,46,-2.20
2020,01,17,06,47,-2.20
2020,01,17,06,48,-2.20
2020,01,17,06,49,-2.20
2020,01,17,06,50,-2.20
2020,01,17,06,51,-2.20
2020,01,17,06,52,-2.20
2020,01,17,06,53,-2.20
2020,01,17,06,54,-2.20
2020,01,17,06,55,-2.20
2020,01,17,06,56,-2.20
2020,01,17,06,57,-2.20
2020,01,17,06,58,-2.20
2020,01,17,06,59,-2.20
2020,01,17,07,00,-2.20
2020,01,17,07,01,-2.20
2020,01,17,07,02,-2.20
2020,01,17,07,03,-2.20
2020,01,17,07,04,-2.20
2020,01,17,07,05,-2.20
2020,01,17,07,06,-2.20
2020,01,17,07,07,-2.20
2020,01,17,07,08,-2.20
2020,01,17,07,09,-2.20
2020,01,17,07,10,-2.20
2020,01,17,07,11,-2.20
2020,01,17,07,12,-2.20
2020,01,17,07,13,-2.20
2020,01,17,07,14,-2.20
2020,01,17,07,15,-2.20
2020,01,17,07,16,-2.20
2020,01,17,07,17,-2.20
2020,01,17,07,18,-2.20
2020,01,17,07,19,-2.20
2020,01,17,07,20,-2.20
2020,01,17,07,21,-2.20
2020,01,17,07,22,-2.20
2020,01,17,07,23,-2.20
2020,01,17,07,24,-2.20
2020,01,17,07,25,-2.20
2020,01,17,07,26,-2.20
2020,01,17,07,27,-2.20
2020,01,17,07,28,-2.20
2020,01,17,07,29,-2.20
2020,01,17,07,30,-2.20
2020,01,17,07,31,-2.20
2020,01,17,07,32,-2.20
2020,01,17,07,33,-2.20
2020,01,17,07,34,-2.20
2020,01,17,07,35,-2.20
2020,01,17,07,36,-2.20
2020,01,17,07,37,-2.20
2020,01,17,07,38,-2.20
2020,01,17,07,39,-2.20
2020,01,17,07,40,-2.20
2020,01,17,07,41,-2.20
2020,01,17,07,42,-2.20
2020,01,17,07,43,-2.20
2020,01,17,07,44,-2.20
2020,01,17,07,45,-2.20
2020,01,17,07,46,-2.20
2020,01,17,07,47,-2.20
2020,01,17,07,48,-2.20
2020,01,17,07,49,-2.20
2020,01,17,07,50,-2.20
2020,01,17,07,51,-2.30
2020,01,17,07,52,-2.30
2020,01,17,07,53,-2.30
2020,01,17,07,54,-2.30
2020,01,17,07,55,-2.30
2020,01,17,07,56,-2.30
2020,01,17,07,57,-2.30
2020,01,17,07,58,-2.30
2020,01,17,07,59,-2.30
2020,01,17,08,00,-2.30
2020,01,17,08,01,-2.30
2020,01,17,08,02,-2.30
2020,01,17,08,03,-2.30
2020,01,17,08,04,-2.30
2020,01,17,08,05,-2.30
2020,01,17,08,06,-2.30
2020,01,17,08,07,-2.30
2020,01,17,08,08,-2.30
2020,01,17,08,09,-2.30
2020,01,17,08,10,-2.30
2020,01,17,08,11,-2.30
2020,01,17,08,12,-2.30
2020,01,17,08,13,-2.30
2020,01,17,08,14,-2.30
2020,01,17,08,15,-2.30
2020,01,17,08,16,-2.30
2020,01,17,08,17,-2.30
2020,01,17,08,18,-2.30
2020,01,17,08,19,-2.30
2020,01,17,08,20,-2.30
2020,01,17,08,21,-2.30
2020,01,17,08,22,-2.30
2020,01,17,08,23,-2.30
2020,01,17,08,24,-2.30
2020,01,17,08,25,-2.30
2020,01,17,08,26,-2.30
2020,01,17,08,27,-2.30
2020,01,17,08,28,-2.30
2020,01,17,08,29,-2.30
2020,01,17,08,30,-2.30
2020,01,17,08,31,-2.30
2020,01,17,08,32,-2.30
2020,01,17,08,33,-2.40
2020,01,17,08,34,-2.40
2020,01,17,08,35,-2.40
2020,01,17,08,36,-2.40
2020,01,17,08,37,-2.40
2020,01,17,08,38,-2.40
2020,01,17,08,39,-2.40
2020,01,17,08,40,-2.40
2020,01,17,08,41,-2.40
2020,01,17,08,42,-2.40
2020,01,17,08,43,-2.40
2020,01,17,08,44,-2.40
2020,01,17,08,45,-2.40
2020,01,17,08,46,-2.40
2020,01,17,08,47,-2.30
2020,01,17,08,48,-2.30
2020,01,17,08,49,-2.30
2020,01,17,08,50,-2.20
2020,01,17,08,51,-2.20
2020,01,17,08,52,-2.20
2020,01,17,08,53,-2.10
2020,01,17,08,54,-2.10
2020,01,17,08,55,-2.10
2020,01,17,08,56,-2.10
2020,01,17,08,57,-2.10
2020,01,17,08,58,-2.10
2020,01,17,08,59,-2.10
2020,01,17,09,00,-2.10
2020,01,17,09,01,-2.10
2020,01,17,09,02,-2.00
2020,01,17,09,03,-2.00
2020,01,17,09,04,-2.00
2020,01,17,09,05,-2.00
2020,01,17,09,06,-2.00
2020,01,17,09,07,-2.00
2020,01,17,09,08,-1.90
2020,01,17,09,09,-1.90
2020,01,17,09,10,-1.90
2020,01,17,09,11,-1.90
2020,01,17,09,12,-1.90
2020,01,17,09,13,-1.90
2020,01,17,09,14,-1.90
2020,01,17,09,15,-2.00
2020,01,17,09,16,-2.00
2020,01,17,09,17,-2.00
2020,01,17,09,18,-2.00
2020,01,17,09,19,-2.00
2020,01,17,09,20,-2.00
2020,01,17,09,21,-2.00
2020,01,17,09,22,-2.00
2020,01,17,09,23,-2.00
2020,01,17,09,24,-2.00
2020,01,17,09,25,-2.00
2020,01,17,09,26,-2.00
2020,01,17,09,27,-2.00
2020,01,17,09,28,-2.00
2020,01,17,09,29,-2.00
2020,01,17,09,30,-2.00
2020,01,17,09,31,-2.00
2020,01,17,09,32,-2.00
2020,01,17,09,33,-1.90
2020,01,17,09,34,-1.90
2020,01,17,09,35,-1.90
2020,01,17,09,36,-1.90
2020,01,17,09,37,-1.90
2020,01,17,09,38,-1.90
2020,01,17,09,39,-1.90
2020,01,17,09,40,-1.80
2020,01,17,09,41,-1.80
2020,01,17,09,42,-1.80
2020,01,17,09,43,-1.80
2020,01,17,09,44,-1.80
2020,01,17,09,45,-1.80
2020,01,17,09,46,-1.80
2020,01,17,09,47,-1.80
2020,01,17,09,48,-1.70
2020,01,17,09,49,-1.70
2020,01,17,09,50,-1.70
2020,01,17,09,51,-1.70
2020,01,17,09,52,-1.70
2020,01,17,09,53,-1.70
2020,01,17,09,54,-1.70
2020,01,17,09,55,-1.70
2020,01,17,09,56,-1.70
2020,01,17,09,57,-1.70
2020,01,17,09,58,-1.60
2020,01,17,09,59,-1.60
2020,01,17,10,00,-1.60
2020,01,17,10,01,-1.60
2020,01,17,10,02,-1.60
2020,01,17,10,03,-1.60
2020,01,17,10,04,-1.60
2020,01,17,10,05,-1.50
2020,01,17,10,06,-1.50
2020,01,17,10,07,-1.50
2020,01,17,10,08,-1.50
2020,01,17,10,09,-1.50
2020,01,17,10,10,-1.40
2020,01,17,10,11,-1.40
2020,01,17,10,12,-1.40
2020,01,17,10,13,-1.40
2020,01,17,10,14,-1.40
2020,01,17,10,15,-1.40
2020,01,17,10,16,-1.40
2020,01,17,10,17,-1.30
2020,01,17,10,18,-1.30
2020,01,17,10,19,-1.30
2020,01,17,10,20,-1.30
2020,01,17,10,21,-1.30
2020,01,17,10,22,-1.20
2020,01,17,10,23,-1.20
2020,01,17,10,24,-1.20
2020,01,17,10,25,-1.20
2020,01,17,10,26,-1.10
2020,01,17,10,27,-1.10
2020,01,17,10,28,-1.10
2020,01,17,10,29,-1.00
2020,01,17,10,30,-0.90
2020,01,17,10,31,-0.90
2020,01,17,10,32,-0.90
2020,01,17,10,33,-0.80
2020,01,17,10,34,-0.80
2020,01,17,10,35,-0.80
2020,01,17,10,36,-0.80
2020,01,17,10,37,-0.80
2020,01,17,10,38,-0.70
2020,01,17,10,39,-0.70
2020,01,17,10,40,-0.70
2020,01,17,10,41,-0.70
2020,01,17,10,42,-0.70
2020,01,17,10,43,-0.70
2020,01,17,10,44,-0.60
2020,01,17,10,45,-0.60
2020,01,17,10,46,-0.60
2020,01,17,10,47,-0.60
2020,01,17,10,48,-0.60
2020,01,17,10,49,-0.50
2020,01,17,10,50,-0.50
2020,01,17,10,51,-0.50
2020,01,17,10,52,-0.40
2020,01,17,10,53,-0.40
2020,01,17,10,54,-0.40
2020,01,17,10,55,-0.30
2020,01,17,10,56,-0.30
2020,01,17,10,57,-0.30
2020,01,17,10,58,-0.30
2020,01,17,10,59,-0.20
2020,01,17,11,00,-0.20
2020,01,17,11,01,-0.20
2020,01,17,11,02,-0.20
2020,01,17,11,03,-0.10
2020,01,17,11,04,-0.10
2020,01,17,11,05,-0.10
2020,01,17,11,06,-0.10
2020,01,17,11,07,-0.10
2020,01,17,11,08,-0.10
2020,01,17,11,09,-0.10
2020,01,17,11,10,-0.10
2020,01,17,11,11,0.00
2020,01,17,11,12,0.00
2020,01,17,11,13,0.00
2020,01,17,11,14,0.00
2020,01,17,11,15,0.10
2020,01,17,11,16,0.10
2020,01,17,11,17,0.10
2020,01,17,11,18,0.10
2020,01,17,11,19,0.10
2020,01,17,11,20,0.20
2020,01,17,11,21,0.20
2020,01,17,11,22,0.20
2020,01,17,11,23,0.20
2020,01,17,11,24,0.20
2020,01,17,11,25,0.30
2020,01,17,11,26,0.30
2020,01,17,11,27,0.30
2020,01,17,11,28,0.40
2020,01,17,11,29,0.40
2020,01,17,11,30,0.40
2020,01,17,11,31,0.50
2020,01,17,11,32,0.60
2020,01,17,11,33,0.60
2020,01,17,11,34,0.60
2020,01,17,11,35,0.70
2020,01,17,11,36,0.70
2020,01,17,11,37,0.80
2020,01,17,11,38,0.90
2020,01,17,11,39,1.10
2020,01,17,11,40,1.40
2020,01,17,11,41,1.60
2020,01,17,11,42,1.80
2020,01,17,11,43,1.90
2020,01,17,11,44,2.10
2020,01,17,11,45,2.20
2020,01,17,11,46,2.30
2020,01,17,11,47,2.40
2020,01,17,11,48,2.40
2020,01,17,11,49,2.50
2020,01,17,11,50,2.60
2020,01,17,11,51,2.60
2020,01,17,11,52,2.70
2020,01,17,11,53,2.70
2020,01,17,11,54,2.80
2020,01,17,11,55,2.80
2020,01,17,11,56,2.80
2020,01,17,11,57,2.80
2020,01,17,11,58,2.80
2020,01,17,11,59,2.90
2020,01,17,12,00,2.90
2020,01,17,12,01,2.90
2020,01,17,12,02,3.00
2020,01,17,12,03,3.00
2020,01,17,12,04,3.10
2020,01,17,12,05,3.10
2020,01,17,12,06,3.20
2020,01,17,12,07,3.20
2020,01,17,12,08,3.20
2020,01,17,12,09,3.30
2020,01,17,12,10,3.30
2020,01,17,12,11,3.30
2020,01,17,12,12,3.30
2020,01,17,12,13,3.30
2020,01,17,12,14,3.30
2020,01,17,12,15,3.30
2020,01,17,12,16,3.30
2020,01,17,12,17,3.30
2020,01,17,12,18,3.30
2020,01,17,12,19,3.30
2020,01,17,12,20,3.30
2020,01,17,12,21,3.30
2020,01,17,12,22,3.30
2020,01,17,12,23,3.30
2020,01,17,12,24,3.30
2020,01,17,12,25,3.20
2020,01,17,12,26,3.20
2020,01,17,12,27,3.20
2020,01,17,12,28,3.20
2020,01,17,12,29,3.20
2020,01,17,12,30,3.20
2020,01,17,12,31,3.10
2020,01,17,12,32,3.10
2020,01,17,12,33,3.10
2020,01,17,12,34,3.10
2020,01,17,12,35,3.20
2020,01,17,12,36,3.20
2020,01,17,12,37,3.10
2020,01,17,12,38,3.20
2020,01,17,12,39,3.20
2020,01,17,12,40,3.20
2020,01,17,12,41,3.20
2020,01,17,12,42,3.20
2020,01,17,12,43,3.20
2020,01,17,12,44,3.10
2020,01,17,12,45,3.10
2020,01,17,12,46,3.10
2020,01,17,12,47,3.10
2020,01,17,12,48,3.10
2020,01,17,12,49,3.10
2020,01,17,12,50,3.10
2020,01,17,12,51,3.00
2020,01,17,12,52,3.00
2020,01,17,12,53,2.90
2020,01,17,12,54,2.90
2020,01,17,12,55,2.90
2020,01,17,12,56,2.90
2020,01,17,12,57,2.90
2020,01,17,12,58,2.90
2020,01,17,12,59,2.90
2020,01,17,13,00,2.90
2020,01,17,13,01,2.90
2020,01,17,13,02,2.90
2020,01,17,13,03,2.90
2020,01,17,13,04,2.90
2020,01,17,13,05,2.90
2020,01,17,13,06,2.90
2020,01,17,13,07,2.90
2020,01,17,13,08,2.90
2020,01,17,13,09,3.00
2020,01,17,13,10,3.00
2020,01,17,13,11,3.00
2020,01,17,13,12,3.00
2020,01,17,13,13,2.90
2020,01,17,13,14,2.90
2020,01,17,13,15,2.90
2020,01,17,13,16,2.90
2020,01,17,13,17,2.90
2020,01,17,13,18,2.90
2020,01,17,13,19,2.90
2020,01,17,13,20,2.90
2020,01,17,13,21,2.90
2020,01,17,13,22,2.90
2020,01,17,13,23,2.90
2020,01,17,13,24,2.90
2020,01,17,13,25,2.90
2020,01,17,13,26,2.90
2020,01,17,13,27,2.90
2020,01,17,13,28,2.90
2020,01,17,13,29,3.00
2020,01,17,13,30,3.00
2020,01,17,13,31,3.00
2020,01,17,13,32,3.00
2020,01,17,13,33,3.00
2020,01,17,13,34,3.10
2020,01,17,13,35,3.10
2020,01,17,13,36,3.10
2020,01,17,13,37,3.10
2020,01,17,13,38,3.10
2020,01,17,13,39,3.10
2020,01,17,13,40,3.10
2020,01,17,13,41,3.10
2020,01,17,13,42,3.10
2020,01,17,13,43,3.10
2020,01,17,13,44,3.10
2020,01,17,13,45,3.10
2020,01,17,13,46,3.10
2020,01,17,13,47,3.10
2020,01,17,13,48,3.10
2020,01,17,13,49,3.10
2020,01,17,13,50,3.10
2020,01,17,13,51,3.10
2020,01,17,13,52,3.10
2020,01,17,13,53,3.10
2020,01,17,13,54,3.10
2020,01,17,13,55,3.20
2020,01,17,13,56,3.20
2020,01,17,13,57,3.20
2020,01,17,13,58,3.20
2020,01,17,13,59,3.20
2020,01,17,14,00,3.20
2020,01,17,14,01,3.30
2020,01,17,14,02,3.30
2020,01,17,14,03,3.30
2020,01,17,14,04,3.30
2020,01,17,14,05,3.30
2020,01,17,14,06,3.30
2020,01,17,14,07,3.30
2020,01,17,14,08,3.30
2020,01,17,14,09,3.30
2020,01,17,14,10,3.40
2020,01,17,14,11,3.40
2020,01,17,14,12,3.40
2020,01,17,14,13,3.40
2020,01,17,14,14,3.40
2020,01,17,14,15,3.40
2020,01,17,14,16,3.40
2020,01,17,14,17,3.40
2020,01,17,14,18,3.40
2020,01,17,14,19,3.40
2020,01,17,14,20,3.40
2020,01,17,14,21,3.40
2020,01,17,14,22,3.40
2020,01,17,14,23,3.40
2020,01,17,14,24,3.40
2020,01,17,14,25,3.40
2020,01,17,14,26,3.40
2020,01,17,14,27,3.40
2020,01,17,14,28,3.40
2020,01,17,14,29,3.30
2020,01,17,14,30,3.30
2020,01,17,14,31,3.30
2020,01,17,14,32,3.30
2020,01,17,14,33,3.40
2020,01,17,14,34,3.40
2020,01,17,14,35,3.40
2020,01,17,14,36,3.40
2020,01,17,14,37,3.40
2020,01,17,14,38,3.40
2020,01,17,14,39,3.40
2020,01,17,14,40,3.40
2020,01,17,14,41,3.40
2020,01,17,14,42,3.40
2020,01,17,14,43,3.40
2020,01,17,14,44,3.40
2020,01,17,14,45,3.40
2020,01,17,14,46,3.40
2020,01,17,14,47,3.40
2020,01,17,14,48,3.40
2020,01,17,14,49,3.40
2020,01,17,14,50,3.50
2020,01,17,14,51,3.50
2020,01,17,14,52,3.50
2020,01,17,14,53,3.50
2020,01,17,14,54,3.50
2020,01,17,14,55,3.50
2020,01,17,14,56,3.50
2020,01,17,14,57,3.60
2020,01,17,14,58,3.60
2020,01,17,14,59,3.60
2020,01,17,15,00,3.60
2020,01,17,15,01,3.50
2020,01,17,15,02,3.50
2020,01,17,15,03,3.50
2020,01,17,15,04,3.50
2020,01,17,15,05,3.50
2020,01,17,15,06,3.50
2020,01,17,15,07,3.40
2020,01,17,15,08,3.40
2020,01,17,15,09,3.40
2020,01,17,15,10,3.40
2020,01,17,15,11,3.50
2020,01,17,15,12,3.50
2020,01,17,15,13,3.50
2020,01,17,15,14,3.50
2020,01,17,15,15,3.50
2020,01,17,15,16,3.50
2020,01,17,15,17,3.50
2020,01,17,15,18,3.50
2020,01,17,15,19,3.50
2020,01,17,15,20,3.50
2020,01,17,15,21,3.50
2020,01,17,15,22,3.60
2020,01,17,15,23,3.60
2020,01,17,15,24,3.60
2020,01,17,15,25,3.60
2020,01,17,15,26,3.60
2020,01,17,15,27,3.60
2020,01,17,15,28,3.60
2020,01,17,15,29,3.60
2020,01,17,15,30,3.60
2020,01,17,15,31,3.60
2020,01,17,15,32,3.60
2020,01,17,15,33,3.60
2020,01,17,15,34,3.60
2020,01,17,15,35,3.60
2020,01,17,15,36,3.60
2020,01,17,15,37,3.60
2020,01,17,15,38,3.60
2020,01,17,15,39,3.60
2020,01,17,15,40,3.60
2020,01,17,15,41,3.60
2020,01,17,15,42,3.60
2020,01,17,15,43,3.60
2020,01,17,15,44,3.60
2020,01,17,15,45,3.60
2020,01,17,15,46,3.60
2020,01,17,15,47,3.60
2020,01,17,15,48,3.60
2020,01,17,15,49,3.60
2020,01,17,15,50,3.60
2020,01,17,15,51,3.60
2020,01,17,15,52,3.60
2020,01,17,15,53,3.50
2020,01,17,15,54,3.50
2020,01,17,15,55,3.50
2020,01,17,15,56,3.50
2020,01,17,15,57,3.50
2020,01,17,15,58,3.50
2020,01,17,15,59,3.50
2020,01,17,16,00,3.50
2020,01,17,16,01,3.50
2020,01,17,16,02,3.50
2020,01,17,16,03,3.50
2020,01,17,16,04,3.60
2020,01,17,16,05,3.60
2020,01,17,16,06,3.60
2020,01,17,16,07,3.60
2020,01,17,16,08,3.60
2020,01,17,16,09,3.60
2020,01,17,16,10,3.60
2020,01,17,16,11,3.60
2020,01,17,16,12,3.70
2020,01,17,16,13,3.70
2020,01,17,16,14,3.70
2020,01,17,16,15,3.70
2020,01,17,16,16,3.70
2020,01,17,16,17,3.70
2020,01,17,16,18,3.80
2020,01,17,16,19,3.80
2020,01,17,16,20,3.80
2020,01,17,16,21,3.80
2020,01,17,16,22,3.80
2020,01,17,16,23,3.80
2020,01,17,16,24,3.80
2020,01,17,16,25,3.80
2020,01,17,16,26,3.80
2020,01,17,16,27,3.80
2020,01,17,16,28,3.80
2020,01,17,16,29,3.80
2020,01,17,16,30,3.80
2020,01,17,16,31,3.80
2020,01,17,16,32,3.80
2020,01,17,16,33,3.80
2020,01,17,16,34,3.80
2020,01,17,16,35,3.70
2020,01,17,16,36,3.80
2020,01,17,16,37,3.80
2020,01,17,16,38,3.80
2020,01,17,16,39,3.80
2020,01,17,16,40,3.80
2020,01,17,16,41,3.90
2020,01,17,16,42,3.90
2020,01,17,16,43,3.90
2020,01,17,16,44,3.80
2020,01,17,16,45,3.80
2020,01,17,16,46,3.80
2020,01,17,16,47,3.80
2020,01,17,16,48,3.90
2020,01,17,16,49,3.80
2020,01,17,16,50,3.80
2020,01,17,16,51,3.80
2020,01,17,16,52,3.80
2020,01,17,16,53,3.80
2020,01,17,16,54,3.80
2020,01,17,16,55,3.80
2020,01,17,16,56,3.80
2020,01,17,16,57,3.80
2020,01,17,16,58,3.80
2020,01,17,16,59,3.80
2020,01,17,17,00,3.80
2020,01,17,17,01,3.80
2020,01,17,17,02,3.80
2020,01,17,17,03,3.80
2020,01,17,17,04,3.80
2020,01,17,17,05,3.80
2020,01,17,17,06,3.80
2020,01,17,17,07,3.80
2020,01,17,17,08,3.80
2020,01,17,17,09,3.80
2020,01,17,17,10,3.80
2020,01,17,17,11,3.80
2020,01,17,17,12,3.80
2020,01,17,17,13,3.80
2020,01,17,17,14,3.80
2020,01,17,17,15,3.90
2020,01,17,17,16,3.90
2020,01,17,17,17,3.90
2020,01,17,17,18,3.90
2020,01,17,17,19,3.90
2020,01,17,17,20,3.90
2020,01,17,17,21,3.90
2020,01,17,17,22,3.90
2020,01,17,17,23,3.90
2020,01,17,17,24,3.90
2020,01,17,17,25,3.90
2020,01,17,17,26,3.90
2020,01,17,17,27,3.80
2020,01,17,17,28,3.80
2020,01,17,17,29,3.80
2020,01,17,17,30,3.80
2020,01,17,17,31,3.90
2020,01,17,17,32,3.90
2020,01,17,17,33,3.80
2020,01,17,17,34,3.80
2020,01,17,17,35,3.80
2020,01,17,17,36,3.80